| time (UTC) | temp F | wind direction | speed MPH | gust MPH | rain 1hr in | rain 24hr in | rain mn in | humidity % | barometer mb |
| 20260506143101 | 51 | 56 | 1.0 | 4.0 | 0.00 | 0.00 | 0.00 | 53 | 1013.2 |
| 20260506141600 | 51 | 51 | 0.0 | 2.0 | 0.00 | 0.00 | 0.00 | 57 | 1013.3 |
| 20260506140029 | 50 | 73 | 0.0 | 2.0 | 0.00 | 0.00 | 0.00 | 60 | 1013.2 |
| 20260506134602 | 48 | 64 | 0.0 | 1.0 | 0.00 | 0.00 | 0.00 | 61 | 1013.0 |
| 20260506133021 | 48 | 104 | 0.0 | 1.0 | 0.00 | 0.00 | 0.00 | 59 | 1012.7 |
| 20260506131525 | 48 | 240 | 0.0 | 1.0 | 0.00 | 0.00 | 0.00 | 65 | 1012.5 |
| 20260506130019 | 47 | 315 | 0.0 | 0.0 | 0.00 | 0.00 | 0.00 | 66 | 1012.3 |
| 20260506124518 | 45 | 277 | 0.0 | 0.0 | 0.00 | 0.00 | 0.00 | 70 | 1012.1 |
| 20260506123014 | 44 | 277 | 0.0 | 0.0 | 0.00 | 0.00 | 0.00 | 74 | 1012.1 |
| 20260506121512 | 42 | 277 | 0.0 | 0.0 | 0.00 | 0.00 | 0.00 | 76 | 1011.9 |
| 20260506120012 | 41 | 277 | 0.0 | 0.0 | 0.00 | 0.00 | 0.00 | 81 | 1011.7 |
| 20260506114520 | 40 | 277 | 0.0 | 0.0 | 0.00 | 0.00 | 0.00 | 82 | 1011.7 |
| 20260506113008 | 39 | 277 | 0.0 | 0.0 | 0.00 | 0.00 | 0.00 | 82 | 1011.4 |
| 20260506111503 | 39 | 277 | 0.0 | 0.0 | 0.00 | 0.00 | 0.00 | 83 | 1011.3 |
| 20260506110006 | 38 | 277 | 0.0 | 0.0 | 0.00 | 0.00 | 0.00 | 82 | 1011.1 |
| 20260506104606 | 38 | 277 | 0.0 | 0.0 | 0.00 | 0.00 | 0.00 | 80 | 1011.1 |
| 20260506103104 | 39 | 277 | 0.0 | 0.0 | 0.00 | 0.00 | 0.00 | 78 | 1010.7 |
| 20260506101551 | 40 | 277 | 0.0 | 0.0 | 0.00 | 0.00 | 0.00 | 77 | 1010.4 |
| 20260506100050 | 40 | 277 | 0.0 | 0.0 | 0.00 | 0.00 | 0.00 | 76 | 1010.5 |
| 20260506094549 | 40 | 12 | 0.0 | 0.0 | 0.00 | 0.00 | 0.00 | 75 | 1010.5 |
| 20260506093052 | 41 | 12 | 0.0 | 0.0 | 0.00 | 0.00 | 0.00 | 73 | 1010.6 |
| 20260506091514 | 41 | 13 | 0.0 | 0.0 | 0.00 | 0.00 | 0.00 | 71 | 1010.5 |
| 20260506090119 | 42 | 12 | 0.0 | 0.0 | 0.00 | 0.00 | 0.00 | 68 | 1010.4 |
| 20260506084506 | 43 | 13 | 0.0 | 1.0 | 0.00 | 0.00 | 0.00 | 68 | 1010.3 |
| 20260506083004 | 44 | 13 | 0.0 | 1.0 | 0.00 | 0.00 | 0.00 | 65 | 1010.3 |
| 20260506081602 | 45 | 58 | 0.0 | 4.0 | 0.00 | 0.00 | 0.00 | 64 | 1010.2 |
| 20260506073048 | 46 | 76 | 0.0 | 6.0 | 0.00 | 0.00 | 0.00 | 63 | 1009.4 |
| 20260506071551 | 47 | 323 | 0.0 | 4.0 | 0.00 | 0.00 | 0.00 | 64 | 1009.1 |
| 20260506061540 | 48 | 319 | 0.0 | 3.0 | 0.00 | 0.00 | 0.00 | 65 | 1009.2 |
| 20260506050105 | 48 | 294 | 0.0 | 0.0 | 0.00 | 0.00 | 0.00 | 66 | 1008.6 |
| 20260506044557 | 49 | 294 | 0.0 | 0.0 | 0.00 | 0.00 | 0.00 | 64 | 1008.7 |
| 20260506043056 | 49 | 294 | 0.0 | 0.0 | 0.00 | 0.00 | 0.00 | 62 | 1008.9 |
| 20260506041548 | 50 | 294 | 0.0 | 0.0 | 0.00 | 0.00 | 0.00 | 62 | 1009.0 |
| 20260506040047 | 49 | 294 | 0.0 | 0.0 | 0.00 | 0.00 | 0.00 | 62 | 1009.2 |
| 20260506034546 | 49 | 294 | 0.0 | 0.0 | 0.00 | 0.00 | 0.00 | 62 | 1009.0 |
| 20260506033044 | 49 | 294 | 0.0 | 0.0 | 0.00 | 0.00 | 0.00 | 61 | 1008.6 |
| 20260506031541 | 50 | 294 | 0.0 | 0.0 | 0.00 | 0.00 | 0.00 | 61 | 1008.8 |
| 20260506030037 | 50 | 294 | 0.0 | 0.0 | 0.00 | 0.00 | 0.00 | 60 | 1008.5 |
| 20260506024540 | 50 | 294 | 0.0 | 0.0 | 0.00 | 0.07 | 0.00 | 60 | 1008.5 |
| 20260506023033 | 50 | 294 | 0.0 | 0.0 | 0.00 | 0.07 | 0.00 | 59 | 1008.5 |
| 20260506021528 | 51 | 294 | 0.0 | 0.0 | 0.00 | 0.07 | 0.00 | 56 | 1008.2 |
| 20260506020026 | 52 | 294 | 0.0 | 0.0 | 0.00 | 0.07 | 0.00 | 53 | 1008.2 |
| 20260506014526 | 52 | 294 | 0.0 | 1.0 | 0.00 | 0.09 | 0.00 | 51 | 1007.9 |
| 20260506013027 | 52 | 294 | 0.0 | 0.0 | 0.00 | 0.09 | 0.00 | 50 | 1007.6 |
| 20260506011554 | 52 | 301 | 0.0 | 0.0 | 0.00 | 0.09 | 0.00 | 51 | 1007.6 |
| 20260506010019 | 52 | 301 | 0.0 | 0.0 | 0.00 | 0.09 | 0.00 | 50 | 1007.3 |
| 20260506004517 | 53 | 301 | 0.0 | 0.0 | 0.00 | 0.13 | 0.00 | 47 | 1007.3 |
| 20260506003017 | 53 | 307 | 0.0 | 3.0 | 0.00 | 0.13 | 0.00 | 45 | 1007.0 |
| 20260506001613 | 54 | 317 | 0.0 | 4.0 | 0.00 | 0.13 | 0.00 | 44 | 1007.0 |
| 20260506000110 | 54 | 321 | 3.0 | 7.0 | 0.00 | 0.13 | 0.00 | 41 | 1006.8 |
| 20260505234546 | 54 | 314 | 0.0 | 6.0 | 0.00 | 0.24 | 0.00 | 42 | 1007.0 |
| 20260505233009 | 54 | 295 | 2.0 | 5.0 | 0.00 | 0.24 | 0.00 | 40 | 1006.9 |
| 20260505231508 | 54 | 252 | 1.0 | 5.0 | 0.00 | 0.24 | 0.00 | 42 | 1007.0 |
| 20260505230007 | 55 | 271 | 0.0 | 3.0 | 0.00 | 0.24 | 0.00 | 42 | 1007.1 |
| 20260505224601 | 55 | 222 | 0.0 | 2.0 | 0.00 | 0.31 | 0.00 | 44 | 1007.3 |
| 20260505223104 | 55 | 291 | 0.0 | 2.0 | 0.00 | 0.31 | 0.00 | 44 | 1007.4 |
| 20260505221602 | 55 | 293 | 2.0 | 4.0 | 0.00 | 0.31 | 0.00 | 39 | 1007.3 |
| 20260505220026 | 55 | 236 | 1.0 | 5.0 | 0.00 | 0.31 | 0.00 | 40 | 1007.4 |
| 20260505214529 | 55 | 226 | 1.0 | 8.0 | 0.00 | 0.31 | 0.00 | 41 | 1007.6 |
| 20260505213025 | 55 | 317 | 1.0 | 5.0 | 0.00 | 0.31 | 0.00 | 44 | 1007.6 |
| 20260505211527 | 55 | 341 | 1.0 | 4.0 | 0.00 | 0.31 | 0.00 | 44 | 1007.5 |
| 20260505210021 | 55 | 264 | 0.0 | 7.0 | 0.00 | 0.31 | 0.00 | 45 | 1007.5 |
| 20260505204518 | 55 | 280 | 1.0 | 8.0 | 0.00 | 0.31 | 0.00 | 45 | 1007.7 |
| 20260505203015 | 55 | 295 | 1.0 | 6.0 | 0.00 | 0.31 | 0.00 | 47 | 1007.8 |
| 20260505201512 | 55 | 222 | 2.0 | 5.0 | 0.00 | 0.31 | 0.00 | 48 | 1007.6 |
| 20260505200010 | 55 | 233 | 0.0 | 3.0 | 0.00 | 0.31 | 0.00 | 54 | 1007.5 |
| 20260505194509 | 56 | 285 | 0.0 | 4.0 | 0.00 | 0.31 | 0.00 | 53 | 1007.5 |
| 20260505193006 | 56 | 258 | 1.0 | 6.0 | 0.00 | 0.31 | 0.00 | 54 | 1007.6 |
| 20260505191505 | 56 | 244 | 1.0 | 6.0 | 0.00 | 0.31 | 0.00 | 53 | 1007.6 |
| 20260505190005 | 57 | 221 | 1.0 | 5.0 | 0.00 | 0.31 | 0.00 | 54 | 1007.8 |
| 20260505184507 | 57 | 227 | 1.0 | 7.0 | 0.00 | 0.31 | 0.00 | 51 | 1007.9 |
| 20260505183001 | 56 | 233 | 0.0 | 8.0 | 0.00 | 0.31 | 0.00 | 52 | 1007.9 |
| 20260505181559 | 57 | 319 | 1.0 | 5.0 | 0.00 | 0.31 | 0.00 | 52 | 1007.8 |
| 20260505180100 | 57 | 334 | 2.0 | 5.0 | 0.00 | 0.31 | 0.00 | 52 | 1007.6 |
| 20260505174555 | 57 | 253 | 1.0 | 8.0 | 0.00 | 0.31 | 0.00 | 53 | 1007.5 |
| 20260505173110 | 58 | 238 | 1.0 | 5.0 | 0.00 | 0.31 | 0.00 | 51 | 1007.3 |
| 20260505171605 | 59 | 178 | 0.0 | 8.0 | 0.00 | 0.31 | 0.00 | 51 | 1007.4 |
| 20260505170045 | 58 | 288 | 1.0 | 7.0 | 0.00 | 0.31 | 0.00 | 54 | 1007.2 |
| 20260505164544 | 56 | 210 | 0.0 | 3.0 | 0.00 | 0.31 | 0.31 | 60 | 1007.3 |
| 20260505163042 | 56 | 75 | 0.0 | 3.0 | 0.00 | 0.31 | 0.31 | 62 | 1007.3 |
| 20260505161541 | 55 | 326 | 0.0 | 2.0 | 0.00 | 0.31 | 0.31 | 65 | 1007.2 |
| 20260505153010 | 52 | 302 | 1.0 | 3.0 | 0.00 | 0.31 | 0.31 | 78 | 1007.1 |
| 20260505151512 | 50 | 275 | 0.0 | 2.0 | 0.00 | 0.31 | 0.31 | 83 | 1007.5 |